Ордубад

Азербайджан     38°54′21″N   46°01′21″E
темп.,
°C
ветер,
м/с
пор.,
м/с
влажн.,
%
обл.,
%
осадки,
мм/ч
давл.,
гПа
погр.,
м
13 апреля, вт
вт1301:00+7в456511 0.0 1017113
04:00+6вюв34590 0.0 101758
07:00+6в34462 0.0 101752
10:00+11юв573093 0.0 10161372
13:00+13юв41125100 0.0 10152837
16:00+13ю71131100 0.1 10132716
19:00+11вюв454744 0.5 1013232
22:00+8в44630 0.6 101593
14 апреля, ср
ср1401:00+7в34600 0.0 101459
04:00+4з127638 0.8 101528
07:00+4сз34674 1.4 1018134
10:00+7з35431 1.4 10181197
13:00+10зсз45320 0.0 10161487
16:00+11зсз343090 0.0 10151529
19:00+10ссз22341 0.0 1015163
22:00+8ссз11341 0.0 101613
15 апреля, чт
чт1501:00+7зсз22360 0.0 101613
04:00+6сз11410 0.0 101714
07:00+6с11451 0.0 101822
10:00+10з23324 0.0 1017784
13:00+13з332576 0.0 10161455
16:00+14зсз3323100 0.0 10141529
19:00+12зсз123297 0.0 1014126
22:00+10вюв2250100 0.0 101682
16 апреля, пт
пт1601:00+8вюв3360100 0.0 1015112
04:00+7вюв2361100 0.0 101574
07:00+8вюв235991 0.1 1016122
10:00+11ююз224611 0.1 1017897
13:00+14з343114 0.1 10162071
16:00+15зсз34303 0.1 10141786
19:00+14зсз12365 0.0 1014238
22:00+11в12484 0.0 101739
17 апреля, сб
сб1701:00+9ссв025211 0.0 101727
04:00+8ссз12546 0.0 101722
07:00+9сз11526 0.0 101818
10:00+13з343721 0.0 1018989
13:00+16зсз45315 0.0 10171436
16:00+17зсз343060 0.0 10151378
19:00+15сз223771 0.0 1015109
22:00+13ю014446 0.0 101717